SCP
0 0 0 0 0 0 0 0 0 0 0 0 0 0 0 0 0 0 0 0 0 0 0 0 0 0 0 0 0 0 0 0 0 0 0 0 0 0 0 0 0 0 0 0 0
0 0 0 0 0 0 0 0 0 0 0 0 0 0 0 0 0 0 0 0 0 0 0 0 0 0 0 0 0 0 0 0 0 0 0 0 0 0 0 0 0 0 0 0 0
0 0 0 0 0 0 0 0 0 0 0 0 0 0 0 0 0 0 0 0 0 0 0 0 0 0 0 0 0 0 0 0 0 0 0 0 0 0 0 0 0 0 0 0 0
0 0 0 0 0 0 0 0 0 0 0 0 0 0 0 0 0 0 0 0 0 0 0 0 0 0 0 0 0 0 0 0 0 0 0 0 0 0 0 0 0 0 0 0 0
0 0 0 0 0 0 0 0 0 0 0 0 0 0 0 0 0 0 0 0 0 0 0 0 0 0 0 0 0 0 0 0 0 0 0 0 0 0 0 0 0 0 0 0 0
0 0 0 0 0 0 0 0 0 0 0 0 0 0 0 0 0 0 0 0 0 0 0 0 0 0 0 0 0 0 0 0 0 0 0 0 0 0 0 0 0 0 0 0 0
0 0 0 0 0 0 0 0 0 0 0 0 0 0 0 0 0 0 0 0 0 0 0 0 0 0 0 0 0 0 0 0 0 0 0 0 0 0 0 0 0 0 0 0 0
0 0 0 0 0 0 0 0 0 0 0 0 0 0 0 0 0 0 0 0 0 0 0 0 0 0 0 0 0 0 0 0 0 0 0 0 0 0 0 0 0 0 0 0 0
0 0 0 0 0 0 0 0 0 0 0 0 0 0 0 0 0 0 0 0 0 0 0 0 0 0 0 0 0 0 0 0 0 0 0 0 0 0 0 0 0 0 0 0 0
0 0 0 0 0 0 0 0 0 0 0 0 0 0 0 0 0 0 0 0 0 0 0 0 0 0 0 0 0 0 0 0 0 0 0 0 0 0 0 0 0 0 0 0 0
0 0 0 0 0 0 0 0 0 0 0 0 0 0 0 0 0 0 0 0 0 0 0 0 0 0 0 0 0 0 0 0 0 0 0 0 0 0 0 0 0 0 0 0 0
0 0 0 0 0 0 0 0 0 0 0 0 0 0 0 0 0 0 0 0 0 0 0 0 0 0 0 0 0 0 0 0 0 0 0 0 0 0 0 0 0 0 0 0 0
0 0 0 0 0 0 0 0 0 0 0 0 0 0 0 0 0 0 0 0 0 0 0 0 0 0 0 0 0 0 0 0 0 0 0 0 0 0 0 0 0 0 0 0 0
0 0 0 0 0 0 0 0 0 0 0 0 0 0 0 0 0 0 0 0 0 0 0 0 0 0 0 0 0 0 0 0 0 0 0 0 0 0 0 0 0 0 0 0 0
0 0 0 0 0 0 0 0 0 0 0 0 0 0 0 0 0 0 0 0 0 0 0 0 0 0 0 0 0 0 0 0 0 0 0 0 0 0 0 0 0 0 0 0 0
0 0 0 0 0 0 0 0 0 0 0 0 0 0 0 0 0 0 0 0 0 0 0 0 0 0 0 0 0 0 0 0 0 0 0 0 0 0 0 0 0 0 0 0 0
0 0 0 0 0 0 0 0 0 0 0 0 0 0 0 0 0 0 0 0 0 0 0 0 0 0 0 0 0 0 0 0 0 0 0 0 0 0 0 0 0 0 0 0 0
0 0 0 0 0 0 0 0 0 0 0 0 0 0 0 0 0 0 0 0 0 0 0 0 0 0 0 0 0 0 0 0 0 0 0 0 0 0 0 0 0 0 0 0 0
0 0 0 0 0 0 0 0 0 0 0 0 0 0 0 0 0 0 0 0 0 0 0 0 0 0 0 0 0 0 0 0 0 0 0 0 0 0 0 0 0 0 0 0 0
0 0 0 0 0 0 0 0 0 0 0 0 0 0 0 0 0 0 0 0 0 0 0 0 0 0 0 0 0 0 0 0 0 0 0 0 0 0 0 0 0 0 0 0 0
0 0 0 0 0 0 0 0 0 0 0 0 0 0 0 0 0 0 0 0 0 0 0 0 0 0 0 0 0 0 0 0 0 0 0 0 0 0 0 0 0 0 0 0 0
0 0 0 0 0 0 0 0 0 0 0 0 0 0 0 0 0 0 0 0 0 0 0 0 0 0 0 0 0 0 0 0 0 0 0 0 0 0 0 0 0 0 0 0 0
0 0 0 0 0 0 0 0 0 0 0 0 0 0 0 0 0 0 0 0 0 0 0 0 0 0 0 0 0 0 0 0 0 0 0 0 0 0 0 0 0 0 0 0 0
0 0 0 0 0 0 0 0 0 0 0 0 0 0 0 0 0 0 0 0 0 0 0 0 0 0 0 0 0 0 0 0 0 0 0 0 0 0 0 0 0 0 0 0 0
0 0 0 0 0 0 0 0 0 0 0 0 0 0 0 0 0 0 0 0 0 0 0 0 0 0 0 0 0 0 0 0 0 0 0 0 0 0 0 0 0 0 0 0 0
0 0 0 0 0 0 0 0 0 0 0 0 0 0 0 0 0 0 0 0 0 0 0 0 0 0 0 0 0 0 0 0 0 0 0 0 0 0 0 0 0 0 0 0 0
0 0 0 0 0 0 0 0 0 0 0 0 0 0 0 0 0 0 0 0 0 0 0 0 0 0 0 0 0 0 0 0 0 0 0 0 0 0 0 0 0 0 0 0 0
Wind_Speed_500mb
15 15 14 14 14 12 10 10 10 11 11 12 12 9 4 4 6 6 7 2 3 3 3 1 5 8 12 7 7 8 7 7 5 5 3 4 11 7 15 16 23 14 12 15 35
16 16 16 16 15 14 13 14 15 16 15 12 10 6 3 6 10 9 5 3 3 2 4 7 9 11 6 7 3 4 5 3 4 3 6 15 15 19 15 25 23 22 22 26 28
13 13 12 11 10 9 10 10 12 14 13 12 9 5 4 9 12 6 7 7 7 8 7 9 11 7 4 6 4 3 5 4 4 11 10 17 20 8 16 14 25 34 36 32 28
14 15 13 10 9 8 9 9 10 10 10 9 6 3 6 9 2 6 7 7 6 7 7 11 11 4 4 5 4 6 6 7 8 4 10 18 19 17 17 21 27 30 34 34 32
12 10 11 10 9 10 10 12 14 13 11 8 4 3 7 11 8 7 3 2 1 3 5 7 8 5 3 3 2 8 7 6 12 21 25 26 24 24 18 17 26 24 17 16 21
11 10 10 10 10 10 10 11 12 12 10 8 4 4 9 6 10 5 1 2 1 4 7 8 6 9 7 3 3 3 15 20 11 15 16 11 11 4 1 32 24 20 18 17 16
11 11 10 10 10 9 10 12 12 9 8 6 4 6 7 11 10 6 3 3 5 9 10 11 11 7 8 5 3 4 15 14 4 2 1 6 12 11 22 26 19 20 19 21 23
11 11 10 9 7 9 10 11 12 10 7 4 6 5 7 11 8 8 3 3 6 7 10 9 9 9 3 6 1 3 6 9 5 1 2 3 8 1 22 21 20 23 21 18 20
10 11 11 8 8 8 10 9 8 6 4 5 7 10 6 11 6 6 6 5 7 8 10 9 9 6 3 4 6 4 9 11 7 2 5 3 11 6 17 16 16 19 20 21 19
7 7 6 6 6 6 7 6 5 3 1 2 6 9 9 8 9 9 9 9 6 11 9 5 4 6 6 10 8 7 8 8 14 2 9 21 28 9 9 10 11 14 18 19 23
6 6 5 5 5 4 3 2 3 4 8 9 9 9 13 12 11 9 11 10 10 5 6 3 8 13 9 10 6 6 12 20 16 9 10 18 20 14 6 4 7 11 16 19 21
3 3 2 2 3 2 1 3 3 8 9 6 7 8 10 11 6 9 12 5 3 4 6 5 13 2 2 6 11 13 17 22 19 12 7 16 27 18 11 3 4 6 11 15 19
7 5 2 1 1 1 3 4 6 9 4 8 7 5 5 8 6 10 11 7 4 8 10 12 6 10 8 9 14 18 23 15 16 10 17 17 28 19 12 11 6 5 8 14 19
9 6 3 1 2 5 5 5 7 11 4 4 1 0 5 7 4 9 13 5 3 4 6 11 4 9 13 17 19 17 18 19 15 9 11 4 12 12 20 18 12 6 7 12 17
11 8 6 4 5 5 4 6 8 6 6 7 5 5 6 4 12 5 10 8 7 8 6 3 9 11 13 11 22 4 6 7 7 14 14 16 11 6 12 23 19 16 8 9 15
13 11 9 7 7 7 8 11 9 3 9 7 2 6 7 1 3 6 4 4 4 3 7 15 2 7 6 4 20 15 9 6 4 3 13 19 22 22 12 15 23 18 13 8 10
14 14 13 12 12 14 17 16 6 5 5 7 7 7 6 7 5 4 5 8 7 5 6 5 11 5 9 9 6 16 13 5 8 8 13 3 13 31 2 6 26 31 20 13 9
16 16 16 15 16 20 26 6 6 1 9 3 4 6 7 5 3 3 4 7 10 4 3 6 8 13 11 18 9 29 17 9 12 8 5 6 15 3 6 9 27 25 19 13 10
20 17 18 18 19 26 13 4 12 10 10 20 7 6 6 3 3 7 11 7 5 18 11 7 8 2 1 3 5 8 18 16 8 2 8 15 16 8 11 17 21 20 17 13 9
23 21 20 21 23 27 5 8 6 7 12 7 13 4 12 9 10 11 12 5 4 4 2 0 10 2 3 2 5 9 7 5 6 11 19 11 12 17 16 20 19 20 21 15 11
29 18 23 27 29 12 6 10 7 10 10 12 11 9 6 10 10 9 4 3 2 6 3 3 4 2 1 12 11 8 11 11 6 8 15 24 13 2 2 26 31 34 29 22 12
29 7 31 39 9 1 6 10 10 11 9 3 5 5 11 12 10 8 8 0 5 12 8 5 3 10 12 3 5 7 9 18 17 19 9 10 27 3 8 18 36 39 29 21 15
28 12 32 46 8 7 2 4 9 10 10 10 10 2 4 8 5 6 5 3 8 12 12 11 6 8 7 5 4 12 11 6 2 1 30 22 26 5 2 9 29 41 29 20 15
23 7 9 25 7 5 9 9 9 6 7 7 8 9 7 4 5 6 10 8 7 10 10 11 9 13 25 22 1 10 12 15 9 11 24 29 34 6 12 15 24 31 29 27 20
19 10 18 11 11 9 6 8 11 11 6 12 4 11 13 8 5 8 5 5 7 7 10 7 12 9 12 20 16 24 26 25 21 19 20 35 24 12 19 18 31 36 28 21 25
23 15 16 12 12 29 13 13 18 8 16 9 8 22 15 12 12 15 12 7 10 6 11 4 7 5 10 16 15 24 35 32 38 37 29 43 51 29 37 40 33 38 37 33 28
45 28 19 19 15 14 12 15 20 22 12 5 20 13 16 16 11 4 8 4 4 14 15 9 9 7 16 8 14 21 28 43 33 31 32 31 40 19 21 26 33 38 29 26 33
Wind_Direction_500mb
337 336 340 348 349 344 345 358 357 352 358 7 17 20 57 114 116 114 98 128 180 203 246 126 129 109 101 80 90 123 241 269 274 256 48 26 338 310 320 293 320 321 296 307 338
347 345 350 346 350 352 357 357 4 3 2 7 22 27 74 111 109 101 103 69 73 116 119 135 131 122 80 102 69 225 251 339 339 279 285 306 302 316 312 312 306 310 301 308 323
343 340 340 350 356 355 358 4 5 357 357 6 14 27 108 131 107 94 90 83 78 98 106 124 127 111 85 137 112 141 275 53 279 273 291 298 300 308 310 302 324 315 302 305 301
346 345 339 343 349 353 358 355 353 1 2 355 12 65 129 131 114 127 110 97 86 102 117 124 126 103 132 166 121 250 267 255 287 309 308 295 308 288 280 313 323 318 301 295 301
343 342 341 340 346 354 353 351 353 349 357 357 8 82 117 99 109 137 117 87 119 136 147 143 115 112 143 108 168 242 294 269 269 286 281 282 273 274 283 336 340 356 356 334 308
332 341 342 347 356 1 354 351 346 345 354 358 12 115 124 109 137 142 67 32 167 152 149 142 140 130 104 96 273 342 281 279 283 286 265 280 286 227 141 330 334 347 348 348 327
330 332 343 351 3 354 346 342 339 348 359 5 39 93 96 132 139 122 110 140 133 141 137 137 139 138 144 136 356 304 296 298 178 259 333 282 230 189 341 340 337 346 339 327 322
328 334 343 350 355 343 337 339 345 2 18 42 89 97 92 139 138 132 167 135 124 127 130 137 131 131 107 125 75 260 266 276 134 306 144 266 262 38 356 353 343 342 337 327 317
335 343 344 344 345 340 335 339 345 6 37 75 95 122 117 153 158 138 140 150 135 127 116 129 145 109 124 212 223 202 268 257 271 122 322 302 281 357 358 358 352 347 344 341 333
324 341 345 347 349 343 339 339 343 20 54 80 106 120 146 158 140 125 140 143 148 142 121 149 109 187 168 205 253 193 236 242 265 110 295 282 272 282 350 351 359 358 352 356 354
322 339 337 355 360 2 355 66 78 55 70 100 104 102 135 141 139 143 152 138 131 124 178 56 232 222 191 216 235 230 251 263 268 283 287 273 272 267 263 322 352 18 14 5 8
301 297 284 351 357 9 92 154 172 139 96 99 112 114 147 155 130 155 160 174 165 166 142 186 242 209 208 176 210 228 256 265 275 263 261 280 276 267 227 201 7 19 39 20 17
262 242 235 313 351 93 111 161 164 153 95 55 103 141 180 194 167 168 171 157 132 170 204 235 108 111 179 198 210 229 241 255 270 307 253 286 273 218 191 168 143 68 62 51 39
252 223 226 276 117 100 115 133 149 145 117 123 129 287 174 164 122 158 171 163 151 229 201 257 137 226 219 240 217 253 229 244 264 267 273 302 291 220 198 187 187 151 90 62 50
245 211 200 174 137 122 143 139 138 125 298 116 139 171 166 202 138 157 178 162 219 182 194 100 184 196 217 230 191 243 136 208 246 246 295 223 251 230 180 209 196 168 128 70 56
227 203 190 175 161 156 148 142 123 51 250 152 181 166 167 95 125 133 148 161 130 207 240 261 311 248 248 182 201 139 118 81 74 257 255 247 225 268 205 233 176 162 146 109 69
205 193 184 171 161 155 150 141 63 200 21 179 182 187 188 155 156 181 166 188 216 189 227 241 213 216 203 196 157 187 178 234 231 198 246 61 229 256 233 202 184 162 149 126 90
199 189 180 172 164 158 150 95 182 34 208 121 126 118 199 154 156 141 150 237 208 177 247 264 252 189 170 227 224 203 210 226 252 241 321 138 237 232 4 141 147 143 137 127 108
188 178 175 170 169 165 154 132 206 197 143 154 103 166 215 205 206 179 217 232 216 189 221 206 255 122 265 331 251 170 218 264 272 136 273 250 251 188 132 135 144 146 154 149 127
177 167 171 169 166 162 103 232 195 139 134 178 193 208 190 192 186 202 196 161 161 191 358 54 282 51 73 239 211 249 141 177 212 248 246 235 265 263 192 180 177 178 180 171 147
168 151 173 168 159 162 190 220 192 189 158 187 196 145 213 182 203 200 165 107 96 122 136 188 249 151 210 205 231 191 218 228 275 247 263 270 263 93 261 200 196 195 191 182 166
167 140 169 163 128 164 191 191 163 159 178 123 112 109 182 163 176 222 215 115 161 150 168 184 212 254 249 113 328 294 275 245 238 233 238 280 263 169 270 247 209 204 199 190 185
158 114 169 174 169 207 222 173 189 148 183 167 166 159 134 161 212 203 180 138 176 185 175 183 205 283 248 171 181 233 212 198 160 308 248 254 258 67 59 177 204 207 199 195 212
155 128 152 199 215 164 148 199 176 171 141 140 130 116 116 104 28 184 215 188 195 206 177 171 198 228 257 288 117 228 205 218 208 246 262 242 270 221 211 208 205 205 209 216 249
175 181 170 179 215 176 198 117 136 169 193 173 143 202 161 147 172 218 216 211 211 205 165 201 237 203 263 261 253 264 254 230 214 226 234 264 251 240 219 217 216 217 221 240 279
177 156 150 137 140 171 189 199 169 179 161 201 210 192 178 165 191 192 158 214 203 161 174 183 247 175 271 255 260 268 254 247 242 243 248 259 265 261 261 254 248 246 258 270 278
202 179 167 157 139 147 200 186 193 152 199 182 197 142 194 228 182 124 157 153 164 169 183 179 185 176 265 11 317 270 252 234 232 233 229 243 253 260 245 246 239 251 247 269 280
Wind_Speed_850mb
15 15 14 14 14 12 10 10 10 11 11 12 12 9 4 4 6 6 7 2 3 3 3 1 5 8 12 7 7 8 7 7 5 5 3 4 11 7 15 16 23 14 12 15 35
16 16 16 16 15 14 13 14 15 16 15 12 10 6 3 6 10 9 5 3 3 2 4 7 9 11 6 7 3 4 5 3 4 3 6 15 15 19 15 25 23 22 22 26 28
13 13 12 11 10 9 10 10 12 14 13 12 9 5 4 9 12 6 7 7 7 8 7 9 11 7 4 6 4 3 5 4 4 11 10 17 20 8 16 14 25 34 36 32 28
14 15 13 10 9 8 9 9 10 10 10 9 6 3 6 9 2 6 7 7 6 7 7 11 11 4 4 5 4 6 6 7 8 4 10 18 19 17 17 21 27 30 34 34 32
12 10 11 10 9 10 10 12 14 13 11 8 4 3 7 11 8 7 3 2 1 3 5 7 8 5 3 3 2 8 7 6 12 21 25 26 24 24 18 17 26 24 17 16 21
11 10 10 10 10 10 10 11 12 12 10 8 4 4 9 6 10 5 1 2 1 4 7 8 6 9 7 3 3 3 15 20 11 15 16 11 11 4 1 32 24 20 18 17 16
11 11 10 10 10 9 10 12 12 9 8 6 4 6 7 11 10 6 3 3 5 9 10 11 11 7 8 5 3 4 15 14 4 2 1 6 12 11 22 26 19 20 19 21 23
11 11 10 9 7 9 10 11 12 10 7 4 6 5 7 11 8 8 3 3 6 7 10 9 9 9 3 6 1 3 6 9 5 1 2 3 8 1 22 21 20 23 21 18 20
10 11 11 8 8 8 10 9 8 6 4 5 7 10 6 11 6 6 6 5 7 8 10 9 9 6 3 4 6 4 9 11 7 2 5 3 11 6 17 16 16 19 20 21 19
7 7 6 6 6 6 7 6 5 3 1 2 6 9 9 8 9 9 9 9 6 11 9 5 4 6 6 10 8 7 8 8 14 2 9 21 28 9 9 10 11 14 18 19 23
6 6 5 5 5 4 3 2 3 4 8 9 9 9 13 12 11 9 11 10 10 5 6 3 8 13 9 10 6 6 12 20 16 9 10 18 20 14 6 4 7 11 16 19 21
3 3 2 2 3 2 1 3 3 8 9 6 7 8 10 11 6 9 12 5 3 4 6 5 13 2 2 6 11 13 17 22 19 12 7 16 27 18 11 3 4 6 11 15 19
7 5 2 1 1 1 3 4 6 9 4 8 7 5 5 8 6 10 11 7 4 8 10 12 6 10 8 9 14 18 23 15 16 10 17 17 28 19 12 11 6 5 8 14 19
9 6 3 1 2 5 5 5 7 11 4 4 1 0 5 7 4 9 13 5 3 4 6 11 4 9 13 17 19 17 18 19 15 9 11 4 12 12 20 18 12 6 7 12 17
11 8 6 4 5 5 4 6 8 6 6 7 5 5 6 4 12 5 10 8 7 8 6 3 9 11 13 11 22 4 6 7 7 14 14 16 11 6 12 23 19 16 8 9 15
13 11 9 7 7 7 8 11 9 3 9 7 2 6 7 1 3 6 4 4 4 3 7 15 2 7 6 4 20 15 9 6 4 3 13 19 22 22 12 15 23 18 13 8 10
14 14 13 12 12 14 17 16 6 5 5 7 7 7 6 7 5 4 5 8 7 5 6 5 11 5 9 9 6 16 13 5 8 8 13 3 13 31 2 6 26 31 20 13 9
16 16 16 15 16 20 26 6 6 1 9 3 4 6 7 5 3 3 4 7 10 4 3 6 8 13 11 18 9 29 17 9 12 8 5 6 15 3 6 9 27 25 19 13 10
20 17 18 18 19 26 13 4 12 10 10 20 7 6 6 3 3 7 11 7 5 18 11 7 8 2 1 3 5 8 18 16 8 2 8 15 16 8 11 17 21 20 17 13 9
23 21 20 21 23 27 5 8 6 7 12 7 13 4 12 9 10 11 12 5 4 4 2 0 10 2 3 2 5 9 7 5 6 11 19 11 12 17 16 20 19 20 21 15 11
29 18 23 27 29 12 6 10 7 10 10 12 11 9 6 10 10 9 4 3 2 6 3 3 4 2 1 12 11 8 11 11 6 8 15 24 13 2 2 26 31 34 29 22 12
29 7 31 39 9 1 6 10 10 11 9 3 5 5 11 12 10 8 8 0 5 12 8 5 3 10 12 3 5 7 9 18 17 19 9 10 27 3 8 18 36 39 29 21 15
28 12 32 46 8 7 2 4 9 10 10 10 10 2 4 8 5 6 5 3 8 12 12 11 6 8 7 5 4 12 11 6 2 1 30 22 26 5 2 9 29 41 29 20 15
23 7 9 25 7 5 9 9 9 6 7 7 8 9 7 4 5 6 10 8 7 10 10 11 9 13 25 22 1 10 12 15 9 11 24 29 34 6 12 15 24 31 29 27 20
19 10 18 11 11 9 6 8 11 11 6 12 4 11 13 8 5 8 5 5 7 7 10 7 12 9 12 20 16 24 26 25 21 19 20 35 24 12 19 18 31 36 28 21 25
23 15 16 12 12 29 13 13 18 8 16 9 8 22 15 12 12 15 12 7 10 6 11 4 7 5 10 16 15 24 35 32 38 37 29 43 51 29 37 40 33 38 37 33 28
45 28 19 19 15 14 12 15 20 22 12 5 20 13 16 16 11 4 8 4 4 14 15 9 9 7 16 8 14 21 28 43 33 31 32 31 40 19 21 26 33 38 29 26 33
Wind_Direction_850mb
337 336 340 348 349 344 345 358 357 352 358 7 17 20 57 114 116 114 98 128 180 203 246 126 129 109 101 80 90 123 241 269 274 256 48 26 338 310 320 293 320 321 296 307 338
347 345 350 346 350 352 357 357 4 3 2 7 22 27 74 111 109 101 103 69 73 116 119 135 131 122 80 102 69 225 251 339 339 279 285 306 302 316 312 312 306 310 301 308 323
343 340 340 350 356 355 358 4 5 357 357 6 14 27 108 131 107 94 90 83 78 98 106 124 127 111 85 137 112 141 275 53 279 273 291 298 300 308 310 302 324 315 302 305 301
346 345 339 343 349 353 358 355 353 1 2 355 12 65 129 131 114 127 110 97 86 102 117 124 126 103 132 166 121 250 267 255 287 309 308 295 308 288 280 313 323 318 301 295 301
343 342 341 340 346 354 353 351 353 349 357 357 8 82 117 99 109 137 117 87 119 136 147 143 115 112 143 108 168 242 294 269 269 286 281 282 273 274 283 336 340 356 356 334 308
332 341 342 347 356 1 354 351 346 345 354 358 12 115 124 109 137 142 67 32 167 152 149 142 140 130 104 96 273 342 281 279 283 286 265 280 286 227 141 330 334 347 348 348 327
330 332 343 351 3 354 346 342 339 348 359 5 39 93 96 132 139 122 110 140 133 141 137 137 139 138 144 136 356 304 296 298 178 259 333 282 230 189 341 340 337 346 339 327 322
328 334 343 350 355 343 337 339 345 2 18 42 89 97 92 139 138 132 167 135 124 127 130 137 131 131 107 125 75 260 266 276 134 306 144 266 262 38 356 353 343 342 337 327 317
335 343 344 344 345 340 335 339 345 6 37 75 95 122 117 153 158 138 140 150 135 127 116 129 145 109 124 212 223 202 268 257 271 122 322 302 281 357 358 358 352 347 344 341 333
324 341 345 347 349 343 339 339 343 20 54 80 106 120 146 158 140 125 140 143 148 142 121 149 109 187 168 205 253 193 236 242 265 110 295 282 272 282 350 351 359 358 352 356 354
322 339 337 355 360 2 355 66 78 55 70 100 104 102 135 141 139 143 152 138 131 124 178 56 232 222 191 216 235 230 251 263 268 283 287 273 272 267 263 322 352 18 14 5 8
301 297 284 351 357 9 92 154 172 139 96 99 112 114 147 155 130 155 160 174 165 166 142 186 242 209 208 176 210 228 256 265 275 263 261 280 276 267 227 201 7 19 39 20 17
262 242 235 313 351 93 111 161 164 153 95 55 103 141 180 194 167 168 171 157 132 170 204 235 108 111 179 198 210 229 241 255 270 307 253 286 273 218 191 168 143 68 62 51 39
252 223 226 276 117 100 115 133 149 145 117 123 129 287 174 164 122 158 171 163 151 229 201 257 137 226 219 240 217 253 229 244 264 267 273 302 291 220 198 187 187 151 90 62 50
245 211 200 174 137 122 143 139 138 125 298 116 139 171 166 202 138 157 178 162 219 182 194 100 184 196 217 230 191 243 136 208 246 246 295 223 251 230 180 209 196 168 128 70 56
227 203 190 175 161 156 148 142 123 51 250 152 181 166 167 95 125 133 148 161 130 207 240 261 311 248 248 182 201 139 118 81 74 257 255 247 225 268 205 233 176 162 146 109 69
205 193 184 171 161 155 150 141 63 200 21 179 182 187 188 155 156 181 166 188 216 189 227 241 213 216 203 196 157 187 178 234 231 198 246 61 229 256 233 202 184 162 149 126 90
199 189 180 172 164 158 150 95 182 34 208 121 126 118 199 154 156 141 150 237 208 177 247 264 252 189 170 227 224 203 210 226 252 241 321 138 237 232 4 141 147 143 137 127 108
188 178 175 170 169 165 154 132 206 197 143 154 103 166 215 205 206 179 217 232 216 189 221 206 255 122 265 331 251 170 218 264 272 136 273 250 251 188 132 135 144 146 154 149 127
177 167 171 169 166 162 103 232 195 139 134 178 193 208 190 192 186 202 196 161 161 191 358 54 282 51 73 239 211 249 141 177 212 248 246 235 265 263 192 180 177 178 180 171 147
168 151 173 168 159 162 190 220 192 189 158 187 196 145 213 182 203 200 165 107 96 122 136 188 249 151 210 205 231 191 218 228 275 247 263 270 263 93 261 200 196 195 191 182 166
167 140 169 163 128 164 191 191 163 159 178 123 112 109 182 163 176 222 215 115 161 150 168 184 212 254 249 113 328 294 275 245 238 233 238 280 263 169 270 247 209 204 199 190 185
158 114 169 174 169 207 222 173 189 148 183 167 166 159 134 161 212 203 180 138 176 185 175 183 205 283 248 171 181 233 212 198 160 308 248 254 258 67 59 177 204 207 199 195 212
155 128 152 199 215 164 148 199 176 171 141 140 130 116 116 104 28 184 215 188 195 206 177 171 198 228 257 288 117 228 205 218 208 246 262 242 270 221 211 208 205 205 209 216 249
175 181 170 179 215 176 198 117 136 169 193 173 143 202 161 147 172 218 216 211 211 205 165 201 237 203 263 261 253 264 254 230 214 226 234 264 251 240 219 217 216 217 221 240 279
177 156 150 137 140 171 189 199 169 179 161 201 210 192 178 165 191 192 158 214 203 161 174 183 247 175 271 255 260 268 254 247 242 243 248 259 265 261 261 254 248 246 258 270 278
202 179 167 157 139 147 200 186 193 152 199 182 197 142 194 228 182 124 157 153 164 169 183 179 185 176 265 11 317 270 252 234 232 233 229 243 253 260 245 246 239 251 247 269 280